Cleveland, OH

5:08 PM EST on February 08, 2016 (GMT -0500)
Burke Lakefront

Weather History for KBKL - January, 2013

Change the Weather History Date:

Sunday, January 6, 2013

  Actual Average Record
Temperature  
Mean Temperature 34 °F -  
Max Temperature 37 °F 35 °F 62 °F (1998)
Min Temperature 32 °F 24 °F -9 °F (2014)
Degree Days  
Heating Degree Days 30    
Moisture  
Dew Point 29 °F    
Average Humidity 81    
Maximum Humidity 93    
Minimum Humidity 70    
Precipitation  
Precipitation 0.00 in - - ()
Sea Level Pressure  
Sea Level Pressure 30.05 in    
Wind  
Wind Speed 14 mph (SW)    
Max Wind Speed 24 mph    
Max Gust Speed 29 mph    
Visibility 8 miles    
Events Snow    
Averages and records for this station are not official NWS values.
T = Trace of Precipitation, MM = Missing Value Source: NWS Daily Summary

Daily Weather History Graph

Daily Weather History Graph

Search for Another Location

Airport or City:

Trip Planner

Search our weather history database for the weather conditions in past years. The results will help you decide how hot, cold, wet, or windy it might be!

Date:

Astronomy

Jan. 06, 2013 Rise Set
Actual Time 7:53 AM EST 5:12 PM EST
Civil Twilight 7:22 AM EST 5:43 PM EST
Nautical Twilight 6:47 AM EST 6:18 PM EST
Astronomical Twilight 6:14 AM EST 6:51 PM EST
Moon 2:04 AM EST (1/6) 12:40 PM EST (1/6)
Length of Visible Light 10h 21m
Length of Day
9h 19m
Waning Crescent, 33% of the Moon is Illuminated
Jan 6
Waning Crescent
Jan 11
New
Jan 18
First Quarter
Jan 26
Full
Feb 3
Last Quarter

Hourly Weather History & Observations

Time (EST) Temp. Windchill Dew Point Humidity Pressure Visibility Wind Dir Wind Speed Gust Speed Precip Events Conditions
12:53 AM 36.0 °F 27.5 °F 27.0 °F 70% 30.09 in 10.0 mi SSW 12.7 mph - N/A   Overcast
1:53 AM 36.0 °F 28.0 °F 27.0 °F 70% 30.07 in 10.0 mi SSW 11.5 mph 18.4 mph 0.00 in   Overcast
2:53 AM 35.1 °F 26.9 °F 28.0 °F 76% 30.07 in 10.0 mi SSW 11.5 mph - N/A   Overcast
3:53 AM 35.1 °F 27.9 °F 28.0 °F 76% 30.05 in 10.0 mi SSW 9.2 mph 19.6 mph N/A   Overcast
4:53 AM 35.1 °F 25.9 °F 28.0 °F 76% 30.03 in 10.0 mi South 13.8 mph - N/A   Overcast
5:53 AM 36.0 °F 27.5 °F 28.0 °F 73% 30.01 in 10.0 mi South 12.7 mph - N/A   Overcast
7:34 AM 35.6 °F 27.5 °F 28.4 °F 75% 29.99 in 10.0 mi SSW 11.5 mph - N/A   Overcast
7:53 AM 35.1 °F 26.4 °F 28.9 °F 78% 30.00 in 7.0 mi South 12.7 mph - 0.00 in Snow Light Snow
8:03 AM 35.6 °F 27.1 °F 28.4 °F 75% 29.98 in 9.0 mi South 12.7 mph - 0.00 in   Overcast
8:53 AM 35.1 °F 26.4 °F 28.0 °F 76% 30.00 in 10.0 mi South 12.7 mph - 0.00 in   Overcast
9:53 AM 36.0 °F 26.7 °F 28.0 °F 73% 30.00 in 10.0 mi South 15.0 mph - N/A   Overcast
11:01 AM 35.6 °F 27.1 °F 28.4 °F 75% 29.99 in 10.0 mi SSW 12.7 mph 21.9 mph N/A   Overcast
11:53 AM 36.0 °F 27.1 °F 28.9 °F 76% 29.99 in 10.0 mi SSW 13.8 mph - N/A   Overcast
12:53 PM 36.0 °F 28.0 °F 30.0 °F 79% 29.96 in 10.0 mi SW 11.5 mph - 0.00 in   Overcast
1:31 PM 37.4 °F 28.5 °F 30.2 °F 75% 29.94 in 9.0 mi SW 15.0 mph - N/A   Overcast
1:53 PM 36.0 °F 26.7 °F 30.0 °F 79% 29.96 in 9.0 mi SW 15.0 mph - N/A   Overcast
2:39 PM 35.6 °F 26.2 °F 30.2 °F 81% 29.95 in 9.0 mi WSW 15.0 mph - N/A   Overcast
2:53 PM 36.0 °F 26.7 °F 30.0 °F 79% 29.98 in 8.0 mi SW 15.0 mph - 0.00 in   Overcast
3:53 PM 35.1 °F 26.4 °F 32.0 °F 89% 30.01 in 5.0 mi WSW 12.7 mph - 0.00 in   Overcast
4:53 PM 35.1 °F 25.9 °F 32.0 °F 89% 30.04 in 6.0 mi West 13.8 mph - 0.00 in   Overcast
5:09 PM 35.6 °F 25.5 °F 32.0 °F 87% 30.02 in 8.0 mi West 17.3 mph 24.2 mph N/A   Overcast
5:41 PM 33.8 °F 22.2 °F 32.0 °F 93% 30.04 in 5.0 mi West 20.7 mph - 0.00 in   Overcast
5:53 PM 34.0 °F 22.7 °F 32.0 °F 92% 30.07 in 4.0 mi West 19.6 mph 28.8 mph 0.00 in   Overcast
6:26 PM 33.8 °F 23.2 °F 30.2 °F 87% 30.07 in 7.0 mi West 17.3 mph - N/A   Overcast
6:53 PM 34.0 °F 22.4 °F 28.9 °F 82% 30.11 in 8.0 mi West 20.7 mph - N/A   Overcast
7:53 PM 34.0 °F 22.1 °F 30.0 °F 85% 30.14 in 6.0 mi West 21.9 mph - N/A   Overcast
8:53 PM 33.1 °F 20.3 °F 30.0 °F 89% 30.17 in 6.0 mi West 24.2 mph - N/A   Overcast
9:53 PM 33.1 °F 22.2 °F 28.9 °F 85% 30.18 in 5.0 mi West 17.3 mph - N/A   Overcast
10:53 PM 32.0 °F 20.1 °F 28.9 °F 88% 30.22 in 4.0 mi West 19.6 mph - N/A   Overcast
11:37 PM 32.0 °F 20.5 °F 28.4 °F 87% 30.22 in 4.0 mi WSW 18.4 mph - N/A   Overcast
11:53 PM 32.0 °F 21.2 °F 28.9 °F 88% 30.25 in 4.0 mi WSW 16.1 mph - N/A   Overcast